This is the latest recevied weather packets stored in our database for station/object SP1BMW-13. If no packets are shown the sender has not sent any weather packets the latest 10 day(s).
| Time | Temp. | Humidity | Pressure | Rain* | Wind** | Luminosity | Snow |
|---|---|---|---|---|---|---|---|
| 1787658341 | 23.89° C | 44% | 1018.7 hPa | 0 mm | 1.34 m/s, 37° | 695 W/m² | - |
| 1787658278 | 23.33° C | 46% | 1018.6 hPa | 0 mm | 1.79 m/s, 78° | 684 W/m² | - |
| 1787658219 | 23.33° C | 48% | 1018.6 hPa | 0 mm | 0.89 m/s, 66° | 679 W/m² | - |
| 1787658159 | 23.33° C | 48% | 1018.5 hPa | 0 mm | 0 m/s | 686 W/m² | - |
| 1787658098 | 23.33° C | 46% | 1018.5 hPa | 0 mm | 0.45 m/s, 39° | 693 W/m² | - |
| 1787658037 | 23.33° C | 47% | 1018.6 hPa | 0 mm | 1.34 m/s, 39° | 693 W/m² | - |
| 1787657977 | 23.33° C | 47% | 1018.6 hPa | 0 mm | 1.34 m/s, 37° | 688 W/m² | - |
| 1787657918 | 23.33° C | 51% | 1018.6 hPa | 0 mm | 0 m/s | 695 W/m² | - |
| 1787657857 | 23.33° C | 47% | 1018.5 hPa | 0 mm | 1.79 m/s, 15° | 702 W/m² | - |
| 1787657797 | 23.33° C | 46% | 1018.6 hPa | 0 mm | 0.89 m/s, 153° | 705 W/m² | - |
| 1787657738 | 23.33° C | 47% | 1018.5 hPa | 0 mm | 1.34 m/s, 4° | 702 W/m² | - |
| 1787657677 | 23.33° C | 48% | 1018.4 hPa | 0 mm | 0.89 m/s, 40° | 696 W/m² | - |
| 1787657619 | 23.33° C | 47% | 1018.6 hPa | 0 mm | 0.89 m/s, 30° | 693 W/m² | - |
| 1787657559 | 23.33° C | 48% | 1018.8 hPa | 0 mm | 0.89 m/s, 65° | 697 W/m² | - |
| 1787657497 | 23.33° C | 45% | 1018.6 hPa | 0 mm | 0.89 m/s, 30° | 707 W/m² | - |
| 1787657437 | 23.89° C | 45% | 1018.4 hPa | 0 mm | 1.79 m/s, 51° | 631 W/m² | - |
| 1787657377 | 23.33° C | 48% | 1018.6 hPa | 0 mm | 0.89 m/s, 4° | 734 W/m² | - |
| 1787657317 | 23.33° C | 50% | 1018.5 hPa | 0 mm | 0.45 m/s, 78° | 162 W/m² | - |
| 1787657258 | 23.33° C | 49% | 1018.6 hPa | 0 mm | 1.79 m/s, 153° | 719 W/m² | - |
| 1787657199 | 23.33° C | 50% | 1018.5 hPa | 0 mm | 0.89 m/s, 33° | 753 W/m² | - |
| 1787657138 | 22.78° C | 51% | 1018.7 hPa | 0 mm | 0.45 m/s, 56° | 760 W/m² | - |
| 1787657078 | 22.78° C | 51% | 1018.6 hPa | 0 mm | 0 m/s | 758 W/m² | - |
| 1787657017 | 22.78° C | 52% | 1018.7 hPa | 0 mm | 0.89 m/s, 31° | 755 W/m² | - |
| 1787656957 | 22.78° C | 50% | 1018.6 hPa | 0 mm | 1.34 m/s, 34° | 758 W/m² | - |
| 1787656897 | 22.78° C | 48% | 1018.7 hPa | 0 mm | 1.34 m/s, 24° | 378 W/m² | - |
* Rain latest hour (hover to see other rain measurements)
** Current wind speed in m/s (hover to see current wind gust speed)